Weather History for KGRD - October, 2013

Change the Weather History Date:

Saturday, October 26, 2013

  Actual Average (KAND) Record (KAND)
Temperature  
Mean Temperature 44 °F -  
Max Temperature 61 °F 71 °F 84 °F (1963)
Min Temperature 28 °F 48 °F 30 °F (2013)
Degree Days  
Heating Degree Days 20    
Moisture  
Dew Point 31 °F    
Average Humidity 66    
Maximum Humidity 92    
Minimum Humidity 32    
Precipitation  
Precipitation 0.00 in - - ()
Sea Level Pressure  
Sea Level Pressure 30.29 in    
Wind  
Wind Speed 3 mph (West)    
Max Wind Speed 10 mph    
Max Gust Speed -    
Visibility 9 miles    
Events      
Averages and records for this station are not official NWS values.
T = Trace of Precipitation, MM = Missing Value Source: NWS Daily Summary

Daily Weather History Graph

Daily Weather History Graph

Search for Another Location

Airport or City:

Trip Planner

Search our weather history database for the weather conditions in past years. The results will help you decide how hot, cold, wet, or windy it might be!

Date:

Astronomy

Oct. 26, 2013 Rise Set
Actual Time 7:43 AM EDT 6:41 PM EDT
Civil Twilight 7:17 AM EDT 7:06 PM EDT
Nautical Twilight 6:48 AM EDT 7:36 PM EDT
Astronomical Twilight 6:19 AM EDT 8:05 PM EDT
Moon 12:04 AM EDT (10/26) 1:56 PM EDT (10/26)
Length of Visible Light 11h 49m
Length of Day
10h 57m
Waning Gibbous, 53% of the Moon is Illuminated
Oct 26
Waning Gibbous
Oct 26
Last Quarter
Nov 3
New
Nov 10
First Quarter
Nov 17
Full

Hourly Weather History & Observations

Time (EDT) Temp. Windchill Dew Point Humidity Pressure Visibility Wind Dir Wind Speed Gust Speed Precip Events Conditions
12:56 AM 37.0 °F 33.3 °F 30.9 °F 79% 30.37 in 10.0 mi NNE 4.6 mph - N/A   Clear
1:56 AM 34.0 °F - 30.0 °F 85% 30.36 in 10.0 mi Calm Calm - N/A   Clear
2:56 AM 32.0 °F - 28.9 °F 88% 30.35 in 10.0 mi Calm Calm - N/A   Clear
3:56 AM 32.0 °F - 28.0 °F 85% 30.34 in 10.0 mi Calm Calm - N/A   Clear
4:56 AM 30.0 °F - 28.0 °F 92% 30.34 in 10.0 mi Calm Calm - N/A   Clear
5:56 AM 30.0 °F - 27.0 °F 88% 30.35 in 10.0 mi Calm Calm - N/A   Clear
6:56 AM 28.9 °F - 26.1 °F 89% 30.36 in 10.0 mi Calm Calm - N/A   Clear
7:56 AM 28.9 °F 25.2 °F 27.0 °F 92% 30.36 in 9.0 mi North 3.5 mph - N/A   Clear
8:27 AM 32.0 °F - 28.4 °F 87% 30.35 in 1.8 mi Calm Calm - N/A   Clear
8:41 AM 33.8 °F - 30.2 °F 87% 30.35 in 10.0 mi Calm Calm - N/A   Clear
8:56 AM 35.1 °F 32.2 °F 30.9 °F 85% 30.36 in 10.0 mi North 3.5 mph - N/A   Clear
9:15 AM 37.4 °F 34.9 °F 32.0 °F 81% 30.35 in 2.5 mi North 3.5 mph - N/A   Haze
9:24 AM 37.4 °F 34.9 °F 32.0 °F 81% 30.35 in 10.0 mi NNE 3.5 mph - N/A   Clear
9:56 AM 42.1 °F 40.2 °F 33.1 °F 70% 30.36 in 10.0 mi Variable 3.5 mph - N/A   Clear
10:56 AM 48.0 °F - 32.0 °F 54% 30.35 in 10.0 mi Calm Calm - N/A   Clear
11:56 AM 53.1 °F - 32.0 °F 45% 30.34 in 10.0 mi SW 6.9 mph - N/A   Clear
12:56 PM 55.9 °F - 30.9 °F 39% 30.31 in 10.0 mi Variable 6.9 mph - 0.00 in   Clear
1:56 PM 57.9 °F - 32.0 °F 37% 30.27 in 10.0 mi WSW 10.4 mph - N/A   Clear
2:56 PM 59.0 °F - 30.0 °F 33% 30.23 in 10.0 mi WSW 10.4 mph - N/A   Clear
3:56 PM 61.0 °F - 30.9 °F 32% 30.20 in 10.0 mi Variable 5.8 mph - N/A   Clear
4:56 PM 60.1 °F - 30.9 °F 33% 30.19 in 10.0 mi WSW 9.2 mph - N/A   Clear
5:56 PM 57.0 °F - 32.0 °F 39% 30.19 in 10.0 mi Variable 6.9 mph - N/A   Clear
6:56 PM 53.1 °F - 34.0 °F 48% 30.18 in 10.0 mi Calm Calm - N/A   Clear
7:56 PM 50.0 °F - 37.0 °F 61% 30.18 in 10.0 mi Calm Calm - N/A   Clear
8:56 PM 50.0 °F - 36.0 °F 59% 30.17 in 10.0 mi WSW 5.8 mph - N/A   Clear
9:56 PM 50.0 °F - 36.0 °F 59% 30.16 in 10.0 mi WSW 5.8 mph - N/A   Clear
10:56 PM 50.0 °F - 36.0 °F 59% 30.16 in 10.0 mi WSW 5.8 mph - N/A   Clear
11:56 PM 50.0 °F - 36.0 °F 59% 30.15 in 10.0 mi SW 8.1 mph - N/A   Clear